Tracking 20060 objects as of 6-Dec-2019
HD Live streaming from Space Station
objects crossing your sky now

USA 43

Track USA 43 now!
USA 43 is classified as:


NORAD ID: 20202
Int'l Code: 1989-069A
Perigee: 36,204.6 km
Apogee: 36,328.1 km
Inclination: 15.1 °
Period: 1,460.3 minutes
Semi major axis: 42637 km
RCS: Unknown
Launch date: September 4, 1989
Source: United States (US)
Launch site: AIR FORCE EASTERN TEST RANGE (AFETR)
aabbcc
Your satellite tracking list
Your tracking list is empty




NASA's NSSDC Master Catalog

Two Line Element Set (TLE):
1 20202U 89069A   19339.55465906 +.00000011 +00000-0 +00000-0 0  9995
2 20202 015.0718 354.8994 0014490 220.2960 137.0796 00.98609247002270
Source of the keplerian elements: McCants